Погода в Пайтовской

Россия / Архангельская область     61°16′08″N   42°22′45″E
темп.,
°C
ветер,
м/с
пор.,
м/с
влажн.,
%
обл.,
%
осадки,
мм/ч
давл.,
гПа
погр.,
м
8 марта, пн
пн800:00−12всв41092100 0.3 995511
03:00−13св4994100 0.4 997488
06:00−14ссв41093100 0.6 998542
09:00−15ссв51092100 0.8 1000447
12:00−15с5992100 0.0 1003443
15:00−14с51091100 0.1 1005540
18:00−17с41094100 0.1 1008565
21:00−20с41096100 0.1 1010442
9 марта, вт
вт900:00−24с3898100 0.0 1012295
03:00−27с3898100 0.1 1014250
06:00−30с389897 0.0 1016239
09:00−29с369483 0.0 1019296
12:00−24с359175 0.0 1020390
15:00−21с368861 0.0 1020469
18:00−24с23950 0.0 102122
21:00−26ссз12980 0.0 102319
10 марта, ср
ср1000:00−27ссз119853 0.0 102419
03:00−27юз119972 0.0 102419
06:00−27з129873 0.0 102419
09:00−22зсз249385 0.0 1024226
12:00−16сз249194 0.0 1024391
15:00−13сз358997 0.1 1024476
18:00−16зсз239694 0.0 102461
21:00−18зсз259855 0.0 102481
11 марта, чт
чт1100:00−17зсз259779 0.0 102584
03:00−18зсз239458 0.0 102659
06:00−20зсз23910 0.0 102633
09:00−15з24830 0.0 1026200
12:00−9з37760 0.0 1025529
15:00−7з47750 0.0 1025857
18:00−11зюз23900 0.0 102463
21:00−14юз38940 0.0 1024175
12 марта, пт
пт1200:00−16юз38960 0.0 1024183
03:00−18ююз39954 0.0 1023212
06:00−19ююз310930 0.0 1022263
09:00−15ююз410840 0.0 1021397
12:00−9ююз59830 0.0 1019516
15:00−7ю510830 0.0 1017617
18:00−10ю514840 0.0 1015557
21:00−11ю514880 0.0 1014637